UMKA 1 (RS40S)

Last updated on Mon Sep 15 2025 00:03:09 GMT+0000 (Coordinated Universal Time)

1 57172U 23091G 25257.24894217 .00004593 00000+0 23932-3 0 9997 2 57172 97.5484 312.1420 0013908 6.7204 353.4213 15.16411339122127
UTC large
Height (km)
Speed (km/s)
/
Latitude / Longitude
Inclination (degrees)
Orbital Period (minutes)
Azimuth
Elevation
Range (km)
Doppler Factor

Next 0 passes for location: London (51.5072 / 0.1276)

Sorry there are no passes over London.